Weather History for Tanana, AK

Change the Weather History Date:

Wednesday, November 27, 2013

  Actual Average Record
Temperature  
Mean Temperature -12 °F -  
Max Temperature -4 °F 2 °F 35 °F (1956)
Min Temperature -20 °F -10 °F -50 °F (1974)
Degree Days  
Heating Degree Days 77    
Moisture  
Dew Point -15 °F    
Average Humidity 81    
Maximum Humidity 87    
Minimum Humidity 76    
Precipitation  
Precipitation 0.00 in - - ()
Snow  
Snow 0.00 in - - ()
Snow Depth 8.00 in    
Sea Level Pressure  
Sea Level Pressure 30.02 in    
Wind  
Wind Speed 1 mph (West)    
Max Wind Speed 4 mph    
Max Gust Speed -    
Visibility 7 miles    
Events Snow    
Averages and records for this station are not official NWS values.
T = Trace of Precipitation, MM = Missing Value Source: NWS Daily Summary

Daily Weather History Graph

Daily Weather History Graph

Search for Another Location

Airport:

Trip Planner

Search our weather history database for the weather conditions in past years. The results will help you decide how hot, cold, wet, or windy it might be!

Date:

Astronomy

Nov. 27, 2013 Rise Set
Actual Time 10:30 AM AKST 3:21 PM AKST
Civil Twilight 9:16 AM AKST 4:35 PM AKST
Nautical Twilight 8:08 AM AKST 5:43 PM AKST
Astronomical Twilight 7:07 AM AKST 6:44 PM AKST
Moon 2:25 AM AKST (11/27) 2:10 PM AKST (11/27)
Length of Visible Light 7h 19m
Length of Day
4h 51m
Waning Crescent, 30% of the Moon is Illuminated
Nov 27
Waning Crescent
Dec 2
New
Dec 9
First Quarter
Dec 17
Full
Dec 25
Last Quarter

Hourly Weather History & Observations

Time (AKST) Temp. Windchill Dew Point Humidity Pressure Visibility Wind Dir Wind Speed Gust Speed Precip Events Conditions
12:52 AM -16.1 °F - -20.9 °F 79% 30.14 in 10.0 mi Calm Calm - N/A   Clear
1:52 AM -18.0 °F - -23.1 °F 78% 30.13 in 10.0 mi Calm Calm - N/A   Clear
2:52 AM -20.0 °F - -25.1 °F 78% 30.12 in 10.0 mi Calm Calm - N/A   Clear
3:52 AM -20.9 °F - -26.0 °F 77% 30.11 in 10.0 mi Calm Calm - N/A   Clear
4:52 AM -20.0 °F - -25.1 °F 78% 30.10 in 10.0 mi Calm Calm - N/A   Clear
5:52 AM -18.9 °F - -24.0 °F 78% 30.09 in 10.0 mi Calm Calm - N/A   Clear
6:52 AM -16.1 °F - -20.9 °F 79% 30.07 in 10.0 mi Calm Calm - N/A   Scattered Clouds
7:52 AM -14.1 °F - -18.0 °F 82% 30.06 in 10.0 mi Calm Calm - N/A   Overcast
8:52 AM -11.9 °F - -16.1 °F 82% 30.06 in 10.0 mi Calm Calm - N/A   Overcast
9:52 AM -9.9 °F - -15.0 °F 78% 30.05 in 10.0 mi Calm Calm - N/A   Overcast
10:52 AM -9.0 °F -18.2 °F -13.0 °F 83% 30.03 in 10.0 mi East 3.5 mph - N/A   Overcast
11:52 AM -8.0 °F -16.9 °F -11.9 °F 83% 30.04 in 10.0 mi WSW 3.5 mph - N/A   Overcast
12:52 PM -7.1 °F - -9.9 °F 87% 30.03 in 10.0 mi Calm Calm - N/A   Overcast
1:52 PM -5.1 °F - -9.0 °F 83% 30.01 in 2.0 mi Calm Calm - N/A Snow Light Snow
2:03 PM -5.8 °F - -9.4 °F 84% 29.98 in 1.8 mi Calm Calm - N/A Snow Light Snow
2:31 PM -5.8 °F -14.5 °F -9.4 °F 84% 29.97 in 1.5 mi WSW 3.5 mph - N/A Snow Light Snow
2:52 PM -5.1 °F -13.6 °F -9.0 °F 83% 30.00 in 0.8 mi WSW 3.5 mph - N/A Snow Light Snow
3:02 PM -5.8 °F -14.5 °F -9.4 °F 84% 29.97 in 1.2 mi WSW 3.5 mph - N/A Snow Light Snow
3:39 PM -4.0 °F - -7.6 °F 85% 29.97 in 2.0 mi Calm Calm - N/A Snow Light Snow
3:50 PM -4.0 °F - -7.6 °F 85% 29.96 in 5.0 mi Calm Calm - N/A Snow Light Snow
3:52 PM -4.0 °F - -8.0 °F 83% 30.00 in 6.0 mi Calm Calm - N/A   Overcast
4:52 PM -4.0 °F -12.4 °F -8.0 °F 83% 30.00 in 6.0 mi SW 3.5 mph - N/A Snow Light Snow
5:50 PM -5.8 °F - -9.4 °F 84% 29.96 in 6.0 mi Calm Calm - N/A   Overcast
5:52 PM -6.0 °F - -9.9 °F 83% 30.00 in 7.0 mi Calm Calm - N/A   Overcast
6:03 PM -7.6 °F - -11.2 °F 84% 29.96 in 9.0 mi Calm Calm - N/A   Mostly Cloudy
6:52 PM -11.0 °F - -15.0 °F 83% 30.00 in 8.0 mi Calm Calm - N/A   Overcast
7:52 PM -8.0 °F - -13.0 °F 79% 29.99 in 9.0 mi Calm Calm - N/A   Overcast
8:52 PM -9.9 °F - -15.0 °F 78% 29.98 in 8.0 mi Calm Calm - N/A   Overcast
9:52 PM -14.1 °F - -18.9 °F 79% 29.98 in 10.0 mi Calm Calm - N/A   Overcast
10:52 PM -17.0 °F - -22.0 °F 78% 29.97 in 5.0 mi Calm Calm - N/A   Haze
11:12 PM -16.6 °F -26.8 °F -22.0 °F 76% 29.94 in 8.0 mi North 3.5 mph - N/A   Overcast
11:52 PM -17.0 °F -27.2 °F -22.0 °F 78% 29.97 in 8.0 mi North 3.5 mph - N/A   Overcast